Location: Austin
(30.3000°N, 97.7500°W)
Time: 06:05:06
(UTC-05:00)

NOSS 3-3 (A) - Pass Details

Date: 16 June 2025
Orbit: 714 x 1495 km, 63.4° (Epoch: 05 July)

Event Time Altitude Azimuth Distance (km) Brightness Sun altitude
Exits shadow 04:38:56 29° 271° (W) 1,361 4.4 -20.0°
Maximum altitude 04:40:29 36° 306° (NW) 1,230 4.4 -19.8°
Drops below altitude 10° 04:45:39 10° 12° (NNE) 2,509 7.0 -19.0°
Sets 04:48:33 0° 21° (NNE) 3,568 8.1 -18.5°
